Location: *
(34.8620°S, 39.3380°E)
Time: 02:33:08
(UTC+00:00)

ISS - Visible Passes

Search period start: 21 October 2021 00:00
Search period end: 31 October 2021 00:00
Orbit: 417 x 423 km, 51.6° (Epoch: 20 October)

Date Brightness Start Highest point End Pass type
(mag) Time Alt. Az. Time Alt. Az. Time Alt. Az.
28 Oct -0.8 18:27:14 10° SSW 18:28:09 15° SSW 18:28:09 15° SSW visible
29 Oct -1.4 17:39:57 10° SSW 17:42:13 16° SSE 17:42:16 16° SSE visible
30 Oct -1.1 16:52:58 10° S 16:54:12 11° SSE 16:55:26 10° SE visible
30 Oct -1.0 18:28:06 10° SW 18:29:18 20° SW 18:29:18 20° SW visible
